This demonstration page uses our WeatherBlox Daily Observations layout. Learn more.

Left ArrowRight Arrow

Hourly Observations for November 9, 2019

Temp ( °F °C ) Dew Point ( °F °C ) Humidity (%) Winds ( mph kmh ) Pressure ( in mb ) Visibility ( mi km ) Precip ( " mm )
12:53 am 00:53 Clear 46 7.8 34 1.1 63 63 Calm 30.15 1021 10 16 0.00 0.00
1:53 am 01:53 Clear 44 6.7 34 1.1 68 68 Calm 30.15 1021 10 16 0.00 0.00
2:53 am 02:53 Clear 43 6.1 34 1.1 71 71 Calm 30.15 1021 10 16 0.00 0.00
3:53 am 03:53 Clear 42 5.6 33 0.6 71 71 Calm 30.14 1021 10 16 0.00 0.00
4:53 am 04:53 Clear 41 5 33 0.6 73 73 N 3 6 30.14 1021 10 16 0.00 0.00
5:53 am 05:53 Clear 41 5 32 0 70 70 Calm 30.14 1021 10 16 0.00 0.00
6:53 am 06:53 Sunny 40 4.4 32 0 73 73 Calm 30.14 1021 10 16 0.00 0.00
7:53 am 07:53 Sunny 45 7.2 34 1.1 66 66 Calm 30.16 1021 10 16 0.00 0.00
8:53 am 08:53 Sunny 54 12.2 36 2.2 51 51 Calm 30.14 1021 10 16 0.00 0.00
9:53 am 09:53 Sunny 65 18.3 39 3.9 39 39 W 3 6 30.14 1021 10 16 0.00 0.00
10:53 am 10:53 Sunny 73 22.8 34 1.1 24 24 Calm 30.12 1020 10 16 0.00 0.00
11:53 am 11:53 Sunny 77 25 33 0.6 20 20 Calm 30.10 1019 10 16 0.00 0.00
12:53 pm 12:53 Sunny 80 26.7 32 0 17 17 VRB 3 6 30.06 1018 10 16 0.00 0.00
1:53 pm 13:53 Sunny 77 25 34 1.1 21 21 W 6 9 30.04 1017 10 16 0.00 0.00
2:53 pm 14:53 Sunny 81 27.2 32 0 17 17 W 3 6 30.02 1017 10 16 0.00 0.00
3:53 pm 15:53 Sunny 81 27.2 32 0 17 17 Calm 30.01 1016 10 16 0.00 0.00
4:53 pm 16:53 Sunny 71 21.7 35 1.7 27 27 Calm 30.01 1016 10 16 0.00 0.00
5:53 pm 17:53 Clear 65 18.3 35 1.7 33 33 Calm 30.02 1017 10 16 0.00 0.00
6:53 pm 18:53 Clear 59 15 35 1.7 41 41 N 3 6 30.04 1017 10 16 0.00 0.00
7:53 pm 19:53 Clear 58 14.4 35 1.7 42 42 Calm 30.05 1018 10 16 0.00 0.00
8:53 pm 20:53 Clear 57 13.9 37 2.8 47 47 W 3 6 30.05 1018 10 16 0.00 0.00
9:53 pm 21:53 Clear 56 13.3 37 2.8 49 49 SW 5 7 30.05 1018 10 16 0.00 0.00
10:53 pm 22:53 Clear 53 11.7 37 2.8 55 55 Calm 30.04 1017 10 16 0.00 0.00
11:53 pm 23:53 Clear 52 11.1 36 2.2 55 55 Calm 30.04 1017 10 16 0.00 0.00

Powered by AerisWeather